DEARF EDDK-EDDR

Flight info

Callsign DEARF
Flight time N/A
Altitude
Route
Aircraft PA28

Departure

Time 2026-04-22 18:37
Airport Cologne Bonn Airport (EDDK)

Arrival

Time N/A
Airport Saarbrücken Airport (EDDR)
Time Latitude Longitude Altitude Speed Heading
2026-04-22 18:26 50.86817 7.11974 228 ft 0 kts 255°
2026-04-22 18:30 50.86813 7.11982 228 ft 4 kts 54°
2026-04-22 18:30 50.86904 7.12044 228 ft 8 kts
2026-04-22 18:30 50.86962 7.12071 228 ft 0 kts 19°
2026-04-22 18:31 50.86963 7.12072 228 ft 0 kts 18°
2026-04-22 18:33 50.86965 7.12073 228 ft 2 kts 18°
2026-04-22 18:33 50.87017 7.12095 228 ft 12 kts 21°
2026-04-22 18:33 50.87038 7.12151 229 ft 0 kts 138°
2026-04-22 18:34 50.87038 7.12152 229 ft 0 kts 139°
2026-04-22 18:36 50.87004 7.12200 230 ft 26 kts 141°
2026-04-22 18:36 50.86744 7.12578 251 ft 71 kts 134°
2026-04-22 18:36 50.86348 7.13145 404 ft 85 kts 139°
2026-04-22 18:37 50.85895 7.13789 606 ft 91 kts 137°
2026-04-22 18:37 50.85384 7.14302 907 ft 81 kts 158°
2026-04-22 18:37 50.84830 7.14311 1129 ft 85 kts 200°
2026-04-22 18:37 50.84291 7.13833 1261 ft 92 kts 208°
2026-04-22 18:38 50.83701 7.13309 1344 ft 104 kts 207°
2026-04-22 18:38 50.83071 7.12767 1463 ft 107 kts 207°
2026-04-22 18:38 50.82412 7.12195 1566 ft 106 kts 207°
2026-04-22 18:39 50.80980 7.10938 1499 ft 123 kts 207°
2026-04-22 18:39 50.80214 7.10395 1548 ft 122 kts 204°
2026-04-22 18:39 50.79468 7.09710 1527 ft 124 kts 210°
2026-04-22 18:39 50.78727 7.09014 1520 ft 127 kts 209°
2026-04-22 18:40 50.77960 7.08320 1515 ft 125 kts 209°
2026-04-22 18:40 50.77225 7.07679 1630 ft 120 kts 207°
2026-04-22 18:40 50.76484 7.07055 1679 ft 120 kts 206°
2026-04-22 18:40 50.75746 7.06476 1791 ft 119 kts 204°
2026-04-22 18:41 50.74982 7.05960 1850 ft 120 kts 197°
2026-04-22 18:41 50.74146 7.05756 1842 ft 125 kts 184°
2026-04-22 18:41 50.73271 7.05637 1817 ft 126 kts 184°
2026-04-22 18:41 50.72402 7.05585 1815 ft 125 kts 178°
2026-04-22 18:42 50.71538 7.05629 1815 ft 125 kts 178°
2026-04-22 18:42 50.70674 7.05647 1809 ft 125 kts 178°
2026-04-22 18:42 50.69809 7.05667 1806 ft 125 kts 178°
2026-04-22 18:42 50.68945 7.05686 1806 ft 125 kts 178°
2026-04-22 18:43 50.68083 7.05704 1806 ft 125 kts 178°
2026-04-22 18:43 50.67213 7.05723 1806 ft 125 kts 178°
2026-04-22 18:43 50.66350 7.05743 1806 ft 125 kts 178°
2026-04-22 18:43 50.65484 7.05761 1805 ft 125 kts 178°
2026-04-22 18:44 50.64620 7.05780 1805 ft 125 kts 178°
2026-04-22 18:44 50.63757 7.05799 1805 ft 125 kts 178°
2026-04-22 18:44 50.62894 7.05817 1805 ft 125 kts 178°
2026-04-22 18:44 50.62034 7.05850 1811 ft 124 kts 179°
2026-04-22 18:45 50.61164 7.05874 1806 ft 125 kts 178°
2026-04-22 18:45 50.60300 7.05894 1803 ft 125 kts 178°
2026-04-22 18:45 50.59436 7.05913 1802 ft 125 kts 178°
2026-04-22 18:45 50.58570 7.05932 1802 ft 125 kts 178°
2026-04-22 18:46 50.57708 7.05950 1803 ft 125 kts 178°
2026-04-22 18:46 50.56843 7.05969 1804 ft 125 kts 178°
2026-04-22 18:46 50.55981 7.05987 1805 ft 125 kts 178°
2026-04-22 18:46 50.55118 7.06033 1808 ft 123 kts 176°
2026-04-22 18:47 50.54276 7.06047 1852 ft 120 kts 178°
2026-04-22 18:47 50.53448 7.06081 1913 ft 117 kts 178°
2026-04-22 18:47 50.52639 7.06094 1965 ft 116 kts 179°
2026-04-22 18:47 50.51827 7.06124 2013 ft 118 kts 177°
2026-04-22 18:48 50.51003 7.06151 2063 ft 119 kts 177°
2026-04-22 18:48 50.50188 7.06177 2107 ft 120 kts 178°
2026-04-22 18:48 50.49338 7.06223 2178 ft 120 kts 177°
2026-04-22 18:48 50.48506 7.06263 2253 ft 120 kts 177°
2026-04-22 18:49 50.47685 7.06306 2357 ft 118 kts 177°
2026-04-22 18:49 50.46868 7.06347 2463 ft 117 kts 176°
2026-04-22 18:49 50.46070 7.06368 2568 ft 115 kts 177°
2026-04-22 18:49 50.45280 7.06392 2677 ft 113 kts 177°
2026-04-22 18:50 50.44482 7.06415 2711 ft 118 kts 178°
2026-04-22 18:50 50.43647 7.06436 2743 ft 120 kts 177°
2026-04-22 18:50 50.42821 7.06461 2796 ft 119 kts 177°
2026-04-22 18:50 50.41995 7.06486 2849 ft 119 kts 177°
2026-04-22 18:51 50.41176 7.06571 2935 ft 115 kts 173°
2026-04-22 18:51 50.40360 7.06596 3010 ft 119 kts 180°
2026-04-22 18:51 50.39542 7.06645 3074 ft 117 kts 176°
2026-04-22 18:51 50.38727 7.06684 3100 ft 119 kts 177°
2026-04-22 18:52 50.37886 7.06723 3094 ft 122 kts 177°
2026-04-22 18:52 50.37043 7.06762 3090 ft 122 kts 177°
2026-04-22 18:52 50.36198 7.06802 3089 ft 122 kts 177°
2026-04-22 18:52 50.35351 7.06842 3089 ft 122 kts 177°
2026-04-22 18:53 50.34502 7.06883 3089 ft 122 kts 177°
2026-04-22 18:53 50.33657 7.06923 3089 ft 122 kts 177°
2026-04-22 18:53 50.32807 7.06964 3089 ft 122 kts 177°
2026-04-22 18:53 50.31961 7.07004 3089 ft 122 kts 177°
2026-04-22 18:54 50.31117 7.07045 3089 ft 122 kts 177°
2026-04-22 18:54 50.30273 7.07085 3089 ft 122 kts 177°
2026-04-22 18:54 50.29426 7.07125 3089 ft 122 kts 177°
2026-04-22 18:54 50.28580 7.07166 3089 ft 122 kts 177°
2026-04-22 18:55 50.27728 7.07207 3089 ft 122 kts 177°
2026-04-22 18:55 50.26883 7.07247 3089 ft 122 kts 177°
2026-04-22 18:55 50.26040 7.07288 3089 ft 122 kts 177°
2026-04-22 18:55 50.25211 7.07552 3098 ft 122 kts 162°
2026-04-22 18:56 50.24393 7.07898 3097 ft 122 kts 165°
2026-04-22 18:56 50.23577 7.08259 3093 ft 122 kts 163°
2026-04-22 18:56 50.22762 7.08630 3090 ft 122 kts 163°
2026-04-22 18:56 50.21942 7.09004 3089 ft 122 kts 163°
2026-04-22 18:57 50.21129 7.09375 3089 ft 122 kts 163°
2026-04-22 18:57 50.20317 7.09745 3089 ft 122 kts 163°
2026-04-22 18:57 50.19505 7.10115 3089 ft 122 kts 163°
2026-04-22 18:57 50.18690 7.10487 3089 ft 122 kts 163°
2026-04-22 18:58 50.17878 7.10857 3089 ft 122 kts 163°
2026-04-22 18:58 50.17064 7.11228 3089 ft 122 kts 163°
2026-04-22 18:58 50.16247 7.11600 3089 ft 122 kts 163°
2026-04-22 18:58 50.15435 7.11970 3089 ft 122 kts 163°
2026-04-22 18:59 50.14623 7.12341 3089 ft 122 kts 163°
2026-04-22 18:59 50.13808 7.12712 3089 ft 122 kts 163°
2026-04-22 18:59 50.12997 7.13082 3089 ft 122 kts 163°
2026-04-22 18:59 50.12184 7.13453 3089 ft 122 kts 163°
2026-04-22 19:00 50.11371 7.13823 3089 ft 122 kts 163°
2026-04-22 19:00 50.10385 7.14273 3089 ft 122 kts 163°
2026-04-22 19:00 50.09415 7.14715 3089 ft 122 kts 163°
2026-04-22 19:00 50.08603 7.15085 3089 ft 122 kts 163°
2026-04-22 19:01 50.07789 7.15455 3089 ft 122 kts 163°
2026-04-22 19:01 50.06976 7.15825 3089 ft 122 kts 163°
2026-04-22 19:01 50.06165 7.16195 3089 ft 122 kts 163°
2026-04-22 19:01 50.05352 7.16565 3089 ft 122 kts 163°
2026-04-22 19:02 50.04534 7.16937 3089 ft 122 kts 163°
2026-04-22 19:02 50.03718 7.17308 3089 ft 122 kts 163°
2026-04-22 19:02 50.02908 7.17677 3089 ft 122 kts 163°
2026-04-22 19:02 50.02092 7.18048 3089 ft 122 kts 163°
2026-04-22 19:03 50.01284 7.18415 3089 ft 122 kts 163°
2026-04-22 19:03 50.00471 7.18785 3089 ft 122 kts 163°
2026-04-22 19:03 49.99658 7.19155 3089 ft 122 kts 163°
2026-04-22 19:03 49.98838 7.19520 3089 ft 122 kts 166°
2026-04-22 19:04 49.98004 7.19645 3099 ft 121 kts 178°
2026-04-22 19:04 49.97163 7.19633 3097 ft 122 kts 181°
2026-04-22 19:04 49.96320 7.19564 3094 ft 122 kts 183°
2026-04-22 19:04 49.95478 7.19465 3091 ft 122 kts 183°
2026-04-22 19:05 49.94633 7.19363 3090 ft 122 kts 183°
2026-04-22 19:05 49.93787 7.19261 3089 ft 122 kts 183°
2026-04-22 19:05 49.92936 7.19158 3089 ft 122 kts 183°
2026-04-22 19:05 49.92093 7.19056 3089 ft 122 kts 183°
2026-04-22 19:06 49.91248 7.18953 3089 ft 122 kts 183°
2026-04-22 19:06 49.90406 7.18851 3089 ft 122 kts 183°
2026-04-22 19:06 49.89560 7.18749 3089 ft 122 kts 183°
2026-04-22 19:07 49.87872 7.18545 3089 ft 122 kts 183°
2026-04-22 19:07 49.87025 7.18443 3089 ft 122 kts 183°
2026-04-22 19:07 49.86181 7.18340 3089 ft 122 kts 184°
2026-04-22 19:07 49.85334 7.18224 3091 ft 123 kts 184°
2026-04-22 19:08 49.84483 7.18125 3090 ft 123 kts 183°
2026-04-22 19:08 49.83632 7.18028 3089 ft 123 kts 183°
2026-04-22 19:08 49.82779 7.17932 3089 ft 123 kts 183°
2026-04-22 19:08 49.81929 7.17837 3089 ft 123 kts 183°
2026-04-22 19:09 49.81071 7.17739 3089 ft 123 kts 183°
2026-04-22 19:09 49.80220 7.17636 3089 ft 124 kts 183°
2026-04-22 19:09 49.79363 7.17536 3089 ft 124 kts 183°
2026-04-22 19:09 49.78510 7.17444 3089 ft 123 kts 183°
2026-04-22 19:10 49.77663 7.17348 3089 ft 123 kts 183°
2026-04-22 19:10 49.76811 7.17250 3089 ft 123 kts 183°
2026-04-22 19:10 49.75960 7.17152 3089 ft 123 kts 183°
2026-04-22 19:10 49.75107 7.17054 3089 ft 123 kts 183°
2026-04-22 19:11 49.74257 7.16956 3089 ft 123 kts 183°
2026-04-22 19:11 49.73406 7.16844 3090 ft 124 kts 185°
2026-04-22 19:11 49.72549 7.16734 3091 ft 125 kts 183°
2026-04-22 19:11 49.71688 7.16641 3090 ft 125 kts 183°
2026-04-22 19:12 49.70828 7.16551 3089 ft 124 kts 183°
2026-04-22 19:12 49.69965 7.16461 3089 ft 124 kts 183°
2026-04-22 19:12 49.69100 7.16371 3089 ft 124 kts 183°
2026-04-22 19:12 49.68240 7.16282 3089 ft 124 kts 183°